Skip Page Navigation
NASA JPL Caltech
NASA Logo - Jet Propulsion Laboratory + View the NASA Portal
+ Center for Near-Earth Object Studies
JPL Home Earth Solar System Stars & Galaxies Technology
JPL Solar System Dynamics
BODIES ORBITS EPHEMERIDES TOOLS PHYSICAL DATA DISCOVERY FAQ SITE MAP
IMPORTANT: The SSD Announcement email list is now available. Major changes are coming in the near future, including possible hostname and/or URL changes. To be notified of such changes, subscribe to this email list.

Please visit this page for more details.


JPL Small-Body Database Browser
Search: [ help ]  
382699 (2002 VW100)
Classification: Main-belt Asteroid          SPK-ID: 2382699
Ephemeris | Orbit Diagram | Orbital Elements | Mission Design | Physical Parameters | Discovery Circumstances | Close-Approach Data ]

[ show orbit diagram ]
Orbital Elements at Epoch 2459000.5 (2020-May-31.0) TDB
Reference: JPL 10 (heliocentric ecliptic J2000)
 Element Value Uncertainty (1-sigma)   Units 
e .2632145590334583 1.1065e-07  
a 3.04361186125497 3.6135e-08 au
q 2.24248890732574 3.2575e-07 au
i 9.698917948317609 1.519e-05 deg
node 245.4998197802565 4.6266e-05 deg
peri 114.2960601294668 5.7247e-05 deg
M 133.50650908596 2.6729e-05 deg
tp 2458281.246029262900
(2018-Jun-11.74602926)
0.0001398 TDB
period 1939.466706440803
5.31
3.454e-05
9.457e-08
d
yr
n .1856180355169134 3.3056e-09 deg/d
Q 3.8447348151842 4.5647e-08 au
  Orbit Determination Parameters
   # obs. used (total)      118  
   data-arc span      5907 days (16.17 yr)  
   first obs. used      2002-11-01  
   last obs. used      2019-01-03  
   planetary ephem.      DE431  
   SB-pert. ephem.      SB431-N16  
   condition code      0  
   norm. resid. RMS      .61927  
   source      ORB  
   producer      Otto Matic  
   solution date      2019-Jul-14 02:05:37  

Additional Information
 Earth MOID = 1.26093 au 
 Jupiter MOID = 1.79762 au 
 T_jup = 3.164 
[ show covariance matrix ]

Ephemeris | Orbit Diagram | Orbital Elements | Mission Design | Physical Parameters | Discovery Circumstances | Close-Approach Data ]

Physical Parameter Table
Parameter Symbol Value Units Sigma Reference Notes
absolute magnitude H 16.6   n/a MPO471931  

382699 (2002 VW100)          Discovered 2002-Nov-11 by LONEOS at Anderson Mesa
Reference: Last Updated: 2014-01-21

[ show close-approach data ]
Alternate Designations
 2002 VW100 = 2007 RQ29 
Ephemeris | Orbit Diagram | Orbital Elements | Mission Design | Physical Parameters | Discovery Circumstances | Close-Approach Data ]
ABOUT SSD CREDITS/AWARDS PRIVACY/COPYRIGHT GLOSSARY LINKS
FirstGov 2020-May-28 08:57 UT
(server date/time)  
NASA Home Page
Site Manager:   Ryan S. Park
Webmaster  Alan B. Chamberlin